Home > Weather > Willich > Past weeks

Flag for Germany Weather for the Past 2 Weeks in Willich, North Rhine-Westphalia, Germany

Now
37 °F

Light rain. Fog.


Feels Like: 34 °F
Forecast: 28 / 37 °F
Wind: 5 mph from Southwest

Location: Monchengladbach Airport

Current Time: Feb 14, 2016 at 4:22:47 PM

Latest Report: Feb 14, 2016 at 3:50 PM


Visibility: 3 mi

Pressure: 29.27 "Hg

Humidity: 100%

Dew point: 37 °F

Location of WillichLocation

Historic Weather in Willich — Graph

°F

Willich Temperature Yesterday

Maximum temperature yesterday: 39 °F (at 1:20 PM)
Minimum temperature yesterday: 30 °F (at 7:50 AM)
Average temperature yesterday: 36 °F

High & Low Weather Summary for the Past Weeks

 TemperatureHumidityPressure
High54 °F (Feb 1, 12:20 PM)100% (Jan 30, 2:20 PM)30.24 "Hg (Jan 30, 2:20 PM)
Low30 °F (Feb 13, 7:50 AM)58% (Feb 7, 4:20 PM)28.80 "Hg (Feb 9, 4:20 PM)
Average44 °F90%29.66 "Hg
* Reported Jan 30 2:20 PM — Feb 14 2:50 PM, Willich, Weather by CustomWeather, © 2016

Note: Actual official high and low records may vary slightly from our data, if they occured in-between our weather recording intervals... More about our weather records

Advertising

Willich Weather History for the Previous 24 Hours

 ConditionsComfort  
Time TempWeatherWind HumidityBarometerVisibility
2:50 PM
Sun, Feb 14
37 °FLight rain. Fog.6 mph100%29.24 "Hg3 mi
2:20 PM37 °FLight rain. Fog.6 mph100%29.21 "Hg3 mi
1:50 PM37 °FLight rain. Passing clouds.6 mph100%29.21 "Hg4 mi
1:20 PM37 °FPassing clouds.7 mph100%29.21 "Hg4 mi
12:50 PM37 °FLight rain. Fog.8 mph100%29.18 "Hg3 mi
12:20 PM37 °FLight rain. Fog.6 mph100%29.18 "Hg3 mi
11:50 AM37 °FLight rain. Fog.6 mph100%29.18 "Hg2 mi
11:20 AM37 °FLight rain. Fog.7 mph100%29.15 "Hg2 mi
10:50 AM37 °FLight rain. Fog.3 mph100%29.15 "Hg2 mi
10:20 AM37 °FLight rain. Fog.5 mph100%29.15 "Hg2 mi
9:50 AM37 °FLight rain. Fog.7 mph100%29.12 "Hg2 mi
9:20 AM37 °FLight rain. Fog.5 mph100%29.12 "Hg2 mi
8:20 AM37 °FLight rain. Fog.5 mph100%29.09 "Hg1 mi
7:50 AM37 °FDrizzle. Fog.5 mph100%29.09 "Hg1 mi
8:20 PM
Sat, Feb 13
37 °FLight rain. Passing clouds.8 mph100%29.03 "Hg4 mi
7:50 PM37 °FLight rain. Passing clouds.7 mph100%29.06 "Hg4 mi
7:20 PM37 °FLight rain. Passing clouds.9 mph100%29.06 "Hg4 mi
6:50 PM37 °FLight rain. Passing clouds.12 mph100%29.06 "Hg3 mi
6:20 PM37 °FLight rain. Passing clouds.13 mph100%29.06 "Hg4 mi
5:50 PM37 °FLight rain. Passing clouds.12 mph100%29.09 "Hg4 mi
5:20 PM37 °FLight rain. Passing clouds.14 mph100%29.09 "Hg3 mi
4:50 PM37 °FRain. Passing clouds.15 mph100%29.09 "Hg2 mi
4:20 PM37 °FLight rain. Passing clouds.16 mph100%29.12 "Hg3 mi
Weather by CustomWeather, © 2016

See weather overviewHow to use our weather pages